Time,TemperatureF,DewpointF,PressureIn,WindDirection,WindDirectionDegrees,WindSpeedMPH,WindSpeedGustMPH,Humidity,HourlyPrecipIn,Conditions,Clouds,dailyrainin,SoftwareType,DateUTC
2013-01-18 00:13:00,36.9,34.8,30.24,ENE,69,0.0,5.2,92,0.09,,SCT028,0.02,VWS V14.01,2013-01-18 05:13:00,
2013-01-18 00:28:00,37.0,34.6,30.25,NNW,338,2.6,9.1,91,0.08,,SCT028,0.03,VWS V14.01,2013-01-18 05:28:00,
2013-01-18 00:43:00,37.0,34.3,30.26,North,5,6.5,7.8,90,0.08,,SCT028,0.04,VWS V14.01,2013-01-18 05:43:00,
2013-01-18 00:58:00,37.3,34.1,30.27,NNE,26,5.2,13.0,88,0.08,,SCT028,0.07,VWS V14.01,2013-01-18 05:58:00,
2013-01-18 01:13:00,37.5,34.0,30.27,NW,321,6.5,11.7,87,0.08,,CLR,0.08,VWS V14.01,2013-01-18 06:13:00,
2013-01-18 01:28:00,37.5,33.4,30.28,ENE,65,1.3,15.6,85,0.07,,CLR,0.09,VWS V14.01,2013-01-18 06:28:00,
2013-01-18 01:43:00,37.3,32.9,30.29,NE,52,2.6,14.3,84,0.08,,CLR,0.11,VWS V14.01,2013-01-18 06:43:00,
2013-01-18 01:58:00,37.0,32.6,30.30,NNE,18,1.3,14.3,84,0.08,,CLR,0.12,VWS V14.01,2013-01-18 06:58:00,
2013-01-18 02:13:00,36.6,32.2,30.31,SW,235,0.0,10.4,84,0.07,,CLR,0.13,VWS V14.01,2013-01-18 07:13:00,
2013-01-18 02:28:00,36.7,31.7,30.32,NW,320,2.6,10.4,82,0.07,,CLR,0.14,VWS V14.01,2013-01-18 07:28:00,
2013-01-18 02:43:00,36.1,31.5,30.32,NE,54,2.6,5.2,83,0.07,,CLR,0.15,VWS V14.01,2013-01-18 07:43:00,
2013-01-18 02:58:00,35.8,31.1,30.32,ESE,115,0.0,6.5,83,0.07,,CLR,0.18,VWS V14.01,2013-01-18 07:58:00,
2013-01-18 03:13:00,35.6,31.2,30.33,ENE,71,2.6,6.5,84,0.07,,CLR,0.19,VWS V14.01,2013-01-18 08:13:00,
2013-01-18 03:28:00,35.6,30.7,30.33,ESE,121,0.0,7.8,82,0.07,,CLR,0.20,VWS V14.01,2013-01-18 08:28:00,
2013-01-18 03:43:00,35.2,30.9,30.34,ESE,121,0.0,2.6,84,0.07,,CLR,0.21,VWS V14.01,2013-01-18 08:43:00,
2013-01-18 03:58:00,34.6,30.3,30.33,East,82,1.3,3.9,84,0.07,,CLR,0.22,VWS V14.01,2013-01-18 08:58:00,
2013-01-18 04:13:00,34.0,30.3,30.33,East,82,1.3,2.6,86,0.05,,CLR,0.23,VWS V14.01,2013-01-18 09:13:00,
2013-01-18 04:28:00,34.2,29.9,30.33,East,96,1.3,6.5,84,0.04,,CLR,0.23,VWS V14.01,2013-01-18 09:28:00,
2013-01-18 04:43:00,34.5,29.6,30.33,ENE,76,1.3,7.8,82,0.03,,CLR,0.23,VWS V14.01,2013-01-18 09:43:00,
2013-01-18 04:58:00,33.8,29.5,30.34,NW,307,2.6,5.2,84,0.03,,CLR,0.24,VWS V14.01,2013-01-18 09:58:00,
2013-01-18 05:13:00,34.3,29.1,30.35,North,351,1.3,6.5,81,0.02,,CLR,0.24,VWS V14.01,2013-01-18 10:13:00,
2013-01-18 05:28:00,34.8,28.6,30.35,West,273,1.3,9.1,78,0.01,,CLR,0.24,VWS V14.01,2013-01-18 10:28:00,
2013-01-18 05:43:00,35.4,28.9,30.34,North,355,10.4,13.0,77,0.01,,CLR,0.24,VWS V14.01,2013-01-18 10:43:00,
2013-01-18 05:58:00,35.6,28.8,30.35,West,266,2.6,19.5,76,0.02,,CLR,0.25,VWS V14.01,2013-01-18 10:58:00,
2013-01-18 06:13:00,35.1,28.6,30.36,WSW,240,0.0,10.4,77,0.01,,CLR,0.25,VWS V14.01,2013-01-18 11:13:00,
2013-01-18 06:28:00,35.1,28.6,30.37,NNW,335,5.2,9.1,77,0.01,,CLR,0.25,VWS V14.01,2013-01-18 11:28:00,
2013-01-18 06:43:00,35.1,28.3,30.38,SE,124,2.6,13.0,76,0.01,,CLR,0.25,VWS V14.01,2013-01-18 11:43:00,
2013-01-18 06:58:00,35.3,28.2,30.38,ESE,110,3.9,9.1,75,0.01,,CLR,0.25,VWS V14.01,2013-01-18 11:58:00,
2013-01-18 07:13:00,35.4,28.3,30.39,East,80,1.3,11.7,75,0.01,,CLR,0.26,VWS V14.01,2013-01-18 12:13:00,
2013-01-18 07:28:00,35.1,28.3,30.40,NE,42,2.6,6.5,76,0.01,,CLR,0.26,VWS V14.01,2013-01-18 12:28:00,
2013-01-18 07:43:00,35.1,28.3,30.41,WNW,294,2.6,6.5,76,0.01,,CLR,0.26,VWS V14.01,2013-01-18 12:43:00,
2013-01-18 07:58:00,35.2,28.1,30.42,NNW,337,5.2,6.5,75,0.01,,CLR,0.26,VWS V14.01,2013-01-18 12:58:00,
2013-01-18 08:13:00,36.0,27.5,30.42,SE,130,0.0,11.7,71,0.01,,CLR,0.26,VWS V14.01,2013-01-18 13:13:00,
2013-01-18 08:28:00,36.2,27.4,30.43,East,98,1.3,6.5,70,0.00,,CLR,0.26,VWS V14.01,2013-01-18 13:28:00,
2013-01-18 08:43:00,37.4,27.5,30.45,East,84,0.0,7.8,67,0.01,,CLR,0.28,VWS V14.01,2013-01-18 13:43:00,
2013-01-18 08:58:00,38.2,28.6,30.46,NW,321,1.3,7.8,68,0.01,,CLR,0.28,VWS V14.01,2013-01-18 13:58:00,
2013-01-18 09:13:00,39.0,29.4,30.46,NNW,332,5.2,10.4,68,0.02,,CLR,0.29,VWS V14.01,2013-01-18 14:13:00,
2013-01-18 09:28:00,40.6,28.2,30.48,NW,309,3.9,11.7,61,0.04,,CLR,0.31,VWS V14.01,2013-01-18 14:28:00,
2013-01-18 09:43:00,41.8,28.1,30.50,ESE,105,2.6,11.7,58,0.04,,CLR,0.31,VWS V14.01,2013-01-18 14:43:00,
2013-01-18 09:58:00,42.8,29.1,30.51,NNW,346,7.8,10.4,58,0.04,,CLR,0.32,VWS V14.01,2013-01-18 14:58:00,
2013-01-18 10:13:00,43.4,29.2,30.51,WNW,294,3.9,10.4,57,0.05,,CLR,0.33,VWS V14.01,2013-01-18 15:13:00,
2013-01-18 10:28:00,44.2,29.1,30.52,NW,315,0.0,16.9,55,0.07,,CLR,0.35,VWS V14.01,2013-01-18 15:28:00,
2013-01-18 10:43:00,44.9,28.8,30.52,SW,221,1.3,10.4,53,0.06,,CLR,0.36,VWS V14.01,2013-01-18 15:43:00,
2013-01-18 10:58:00,46.3,30.1,30.52,ENE,57,0.0,6.5,53,0.07,,CLR,0.37,VWS V14.01,2013-01-18 15:58:00,
2013-01-18 11:13:00,46.5,29.8,30.52,North,355,1.3,7.8,52,0.07,,CLR,0.38,VWS V14.01,2013-01-18 16:13:00,
2013-01-18 11:28:00,47.6,28.9,30.52,East,92,6.5,6.5,48,0.07,,CLR,0.40,VWS V14.01,2013-01-18 16:28:00,
2013-01-18 11:43:00,48.2,27.3,30.52,NE,36,1.3,6.5,44,0.04,,CLR,0.40,VWS V14.01,2013-01-18 16:43:00,
2013-01-18 11:58:00,48.9,29.6,30.51,East,90,1.3,5.2,47,0.04,,CLR,0.41,VWS V14.01,2013-01-18 16:58:00,
2013-01-18 12:13:00,49.2,27.7,30.51,East,84,0.0,6.5,43,0.04,,CLR,0.42,VWS V14.01,2013-01-18 17:13:00,
2013-01-18 12:28:00,50.0,31.1,30.51,SSE,153,1.3,3.9,48,0.04,,CLR,0.43,VWS V14.01,2013-01-18 17:28:00,
2013-01-18 12:43:00,51.6,30.4,30.50,NE,51,1.3,3.9,44,0.04,,CLR,0.44,VWS V14.01,2013-01-18 17:43:00,
2013-01-18 12:58:00,50.5,28.3,30.49,WNW,298,0.0,5.2,42,0.05,,CLR,0.45,VWS V14.01,2013-01-18 17:58:00,
2013-01-18 13:13:00,50.1,28.5,30.49,SSE,153,3.9,6.5,43,0.06,,CLR,0.46,VWS V14.01,2013-01-18 18:13:00,
2013-01-18 13:28:00,50.1,28.5,30.49,ESE,123,1.3,6.5,43,0.04,,CLR,0.46,VWS V14.01,2013-01-18 18:28:00,
2013-01-18 13:43:00,50.4,27.0,30.49,South,184,2.6,9.1,40,0.04,,CLR,0.47,VWS V14.01,2013-01-18 18:43:00,
2013-01-18 13:58:00,51.0,26.9,30.49,SW,233,2.6,9.1,39,0.04,,CLR,0.48,VWS V14.01,2013-01-18 18:58:00,
2013-01-18 14:13:00,51.4,27.3,30.48,NNW,336,1.3,9.1,39,0.04,,CLR,0.50,VWS V14.01,2013-01-18 19:13:00,
2013-01-18 14:28:00,52.6,28.4,30.48,ESE,112,0.0,7.8,39,0.04,,CLR,0.51,VWS V14.01,2013-01-18 19:28:00,
2013-01-18 14:43:00,53.0,30.0,30.48,SSW,192,2.6,6.5,41,0.04,,CLR,0.51,VWS V14.01,2013-01-18 19:43:00,
2013-01-18 14:58:00,52.6,29.0,30.48,SSW,194,2.6,7.8,40,0.04,,CLR,0.52,VWS V14.01,2013-01-18 19:58:00,
2013-01-18 15:13:00,52.9,28.0,30.48,East,90,2.6,9.1,38,0.04,,CLR,0.53,VWS V14.01,2013-01-18 20:13:00,
2013-01-18 15:28:00,53.8,27.5,30.48,SW,219,0.0,5.2,36,0.04,,CLR,0.54,VWS V14.01,2013-01-18 20:28:00,
2013-01-18 15:43:00,53.0,26.8,30.48,SE,146,6.5,9.1,36,0.03,,CLR,0.54,VWS V14.01,2013-01-18 20:43:00,
2013-01-18 15:58:00,53.6,28.6,30.48,ESE,119,0.0,6.5,38,0.04,,CLR,0.55,VWS V14.01,2013-01-18 20:58:00,
2013-01-18 16:13:00,54.3,27.2,30.48,West,273,3.9,5.2,35,0.04,,CLR,0.56,VWS V14.01,2013-01-18 21:13:00,
2013-01-18 16:28:00,53.7,28.7,30.48,SSW,206,2.6,6.5,38,0.03,,CLR,0.56,VWS V14.01,2013-01-18 21:28:00,
2013-01-18 16:43:00,53.8,28.8,30.48,South,185,0.0,6.5,38,0.03,,CLR,0.57,VWS V14.01,2013-01-18 21:43:00,
2013-01-18 16:58:00,53.0,29.3,30.49,SSE,148,3.9,6.5,40,0.03,,CLR,0.57,VWS V14.01,2013-01-18 21:58:00,
2013-01-18 17:13:00,52.8,30.9,30.49,South,169,0.0,3.9,43,0.03,,CLR,0.58,VWS V14.01,2013-01-18 22:13:00,
2013-01-18 17:28:00,50.9,30.3,30.49,South,169,0.0,2.6,45,0.03,,CLR,0.59,VWS V14.01,2013-01-18 22:28:00,
2013-01-18 17:43:00,48.4,32.1,30.50,South,169,0.0,1.3,53,0.03,,CLR,0.59,VWS V14.01,2013-01-18 22:43:00,
2013-01-18 17:58:00,45.9,32.0,30.50,South,169,0.0,1.3,58,0.03,,CLR,0.61,VWS V14.01,2013-01-18 22:58:00,
2013-01-18 18:13:00,43.8,32.4,30.50,South,169,0.0,1.3,64,0.03,,CLR,0.61,VWS V14.01,2013-01-18 23:13:00,
2013-01-18 18:28:00,41.4,32.4,30.50,South,169,0.0,1.3,70,0.03,,CLR,0.62,VWS V14.01,2013-01-18 23:28:00,
2013-01-18 18:43:00,40.1,31.8,30.51,South,169,0.0,1.3,72,0.02,,CLR,0.62,VWS V14.01,2013-01-18 23:43:00,
2013-01-18 18:58:00,39.1,32.2,30.51,South,169,0.0,1.3,76,0.02,,CLR,0.62,VWS V14.01,2013-01-18 23:58:00,
2013-01-18 19:13:00,38.4,31.8,30.52,South,169,0.0,1.3,77,0.02,,CLR,0.63,VWS V14.01,2013-01-19 00:13:00,
2013-01-18 19:28:00,37.8,31.6,30.52,South,169,0.0,1.3,78,0.02,,CLR,0.63,VWS V14.01,2013-01-19 00:28:00,
2013-01-18 19:43:00,37.2,31.6,30.52,South,169,0.0,0.0,80,0.02,,CLR,0.64,VWS V14.01,2013-01-19 00:43:00,
2013-01-18 19:58:00,36.6,31.3,30.52,South,169,0.0,1.3,81,0.02,,CLR,0.64,VWS V14.01,2013-01-19 00:58:00,
2013-01-18 20:13:00,36.1,31.5,30.52,South,169,0.0,1.3,83,0.02,,CLR,0.64,VWS V14.01,2013-01-19 01:13:00,
2013-01-18 20:28:00,35.7,31.0,30.52,South,169,1.3,1.3,83,0.02,,CLR,0.65,VWS V14.01,2013-01-19 01:28:00,
2013-01-18 20:43:00,35.6,31.0,30.52,South,169,0.0,1.3,83,0.02,,CLR,0.65,VWS V14.01,2013-01-19 01:43:00,
2013-01-18 20:58:00,35.4,30.8,30.52,South,169,0.0,1.3,83,0.01,,CLR,0.65,VWS V14.01,2013-01-19 01:58:00,
2013-01-18 21:13:00,35.1,30.8,30.53,South,169,0.0,1.3,84,0.02,,CLR,0.66,VWS V14.01,2013-01-19 02:13:00,
2013-01-18 21:28:00,34.9,30.6,30.53,South,169,0.0,1.3,84,0.02,,CLR,0.66,VWS V14.01,2013-01-19 02:28:00,
2013-01-18 21:43:00,34.6,30.6,30.53,South,169,0.0,0.0,85,0.01,,CLR,0.66,VWS V14.01,2013-01-19 02:43:00,
2013-01-18 21:58:00,34.0,30.0,30.53,South,169,0.0,0.0,85,0.01,,CLR,0.66,VWS V14.01,2013-01-19 02:58:00,
2013-01-18 22:13:00,33.4,29.7,30.53,South,169,0.0,2.6,86,0.01,,CLR,0.66,VWS V14.01,2013-01-19 03:13:00,
2013-01-18 22:28:00,33.2,29.5,30.53,South,169,0.0,0.0,86,0.00,,CLR,0.66,VWS V14.01,2013-01-19 03:28:00,
2013-01-18 22:43:00,32.9,29.5,30.53,South,169,0.0,0.0,87,0.00,,CLR,0.66,VWS V14.01,2013-01-19 03:43:00,
2013-01-18 22:58:00,32.7,29.3,30.53,South,169,0.0,0.0,87,0.00,,CLR,0.66,VWS V14.01,2013-01-19 03:58:00,
2013-01-18 23:13:00,32.4,29.2,30.53,South,169,0.0,1.3,88,0.00,,CLR,0.66,VWS V14.01,2013-01-19 04:13:00,
2013-01-18 23:28:00,32.3,29.1,30.53,South,169,0.0,2.6,88,0.00,,CLR,0.66,VWS V14.01,2013-01-19 04:28:00,
2013-01-18 23:43:00,31.6,28.5,30.52,South,169,0.0,1.3,88,0.00,,CLR,0.66,VWS V14.01,2013-01-19 04:43:00,
2013-01-18 23:58:00,31.4,28.3,30.52,South,169,0.0,2.6,88,0.00,,CLR,0.66,VWS V14.01,2013-01-19 04:58:00,